Athens, TX

9:31 AM CST on February 11, 2016 (GMT -0600)
Athens

Weather History for KF44 - March, 2013

Change the Weather History Date:

Monday, March 25, 2013

  Actual Average (KTYR) Record (KTYR)
Temperature  
Mean Temperature 42 °F 59 °F  
Max Temperature 53 °F 69 °F 88 °F (1950)
Min Temperature 32 °F 49 °F 28 °F (1966)
Degree Days  
Heating Degree Days 22 7  
Month to date heating degree days 233  
Since 1 July heating degree days 2125  
Cooling Degree Days 0 1  
Month to date cooling degree days 13  
Year to date cooling degree days 25  
Moisture  
Dew Point 20 °F    
Average Humidity 42    
Maximum Humidity 69    
Minimum Humidity 22    
Precipitation  
Precipitation 0.00 in 0.14 in 2.56 in (1934)
Month to date precipitation 3.44  
Year to date precipitation 10.31  
Snow  
Snow 0.00 in - - ()
Month to date snowfall  
Since 1 July snowfall  
Snow Depth -    
Sea Level Pressure  
Sea Level Pressure 30.29 in    
Wind  
Wind Speed 7 mph (NNW)    
Max Wind Speed 18 mph    
Max Gust Speed 24 mph    
Visibility 10 miles    
Events      
T = Trace of Precipitation, MM = Missing Value Source: NWS Daily Summary

Daily Weather History Graph

Daily Weather History Graph

Search for Another Location

Airport or City:

Trip Planner

Search our weather history database for the weather conditions in past years. The results will help you decide how hot, cold, wet, or windy it might be!

Date:

Astronomy

Mar. 25, 2013 Rise Set
Actual Time 7:20 AM CDT 7:38 PM CDT
Civil Twilight 6:55 AM CDT 8:03 PM CDT
Nautical Twilight 6:27 AM CDT 8:31 PM CDT
Astronomical Twilight 5:58 AM CDT 9:00 PM CDT
Moon 6:14 PM CDT (3/25) 5:59 AM CDT (3/25)
Length of Visible Light 13h 07m
Length of Day
12h 18m
Waxing Gibbous, 96% of the Moon is Illuminated
Mar 25
Waxing Gibbous
Mar 27
Full
Apr 2
Last Quarter
Apr 10
New
Apr 18
First Quarter

Hourly Weather History & Observations

Time (CDT) Temp. Windchill Dew Point Humidity Pressure Visibility Wind Dir Wind Speed Gust Speed Precip Events Conditions
12:15 AM 41.0 °F 37.1 °F 24.8 °F 53% 30.16 in 10.0 mi NNW 5.8 mph - N/A   Clear
12:35 AM 41.0 °F 37.1 °F 23.0 °F 49% 30.17 in 10.0 mi North 5.8 mph - N/A   Clear
12:55 AM 39.2 °F 34.2 °F 23.0 °F 52% 30.17 in 10.0 mi North 6.9 mph - N/A   Clear
1:15 AM 39.2 °F 35.9 °F 23.0 °F 52% 30.18 in 10.0 mi North 4.6 mph - N/A   Clear
1:35 AM 37.4 °F 33.8 °F 23.0 °F 56% 30.18 in 10.0 mi North 4.6 mph - N/A   Clear
1:55 AM 37.4 °F 32.8 °F 23.0 °F 56% 30.19 in 10.0 mi North 5.8 mph - N/A   Clear
2:15 AM 37.4 °F 32.8 °F 21.2 °F 52% 30.20 in 10.0 mi NNW 5.8 mph - N/A   Clear
2:35 AM 37.4 °F 31.4 °F 21.2 °F 52% 30.20 in 10.0 mi North 8.1 mph - N/A   Clear
2:55 AM 37.4 °F 31.4 °F 21.2 °F 52% 30.21 in 10.0 mi North 8.1 mph - N/A   Clear
3:15 AM 35.6 °F 29.2 °F 21.2 °F 56% 30.21 in 10.0 mi North 8.1 mph - N/A   Clear
3:55 AM 35.6 °F 28.6 °F 21.2 °F 56% 30.23 in 10.0 mi North 9.2 mph - N/A   Clear
4:15 AM 35.6 °F 28.6 °F 21.2 °F 56% 30.23 in 10.0 mi North 9.2 mph - N/A   Clear
4:35 AM 33.8 °F 27.7 °F 21.2 °F 60% 30.24 in 10.0 mi North 6.9 mph - N/A   Clear
4:55 AM 33.8 °F 28.6 °F 21.2 °F 60% 30.25 in 10.0 mi NNW 5.8 mph - N/A   Clear
5:15 AM 33.8 °F 30.8 °F 21.2 °F 60% 30.26 in 10.0 mi NNW 3.5 mph - N/A   Clear
5:35 AM 33.8 °F - 21.2 °F 60% 30.26 in 10.0 mi Calm Calm - N/A   Clear
5:55 AM 32.0 °F - 23.0 °F 69% 30.27 in 10.0 mi Calm Calm - N/A   Clear
6:15 AM 32.0 °F 28.7 °F 23.0 °F 69% 30.27 in 10.0 mi NNW 3.5 mph - N/A   Clear
6:35 AM 32.0 °F 28.7 °F 23.0 °F 69% 30.28 in 10.0 mi NNW 3.5 mph - N/A   Clear
6:55 AM 32.0 °F 27.5 °F 23.0 °F 69% 30.28 in 10.0 mi NNW 4.6 mph - N/A   Clear
7:15 AM 32.0 °F - 23.0 °F 69% 30.29 in 10.0 mi Calm Calm - N/A   Clear
7:35 AM 32.0 °F - 21.2 °F 64% 30.30 in 10.0 mi Calm Calm - N/A   Clear
7:55 AM 32.0 °F 28.7 °F 21.2 °F 64% 30.31 in 10.0 mi NNW 3.5 mph - N/A   Clear
8:15 AM 32.0 °F 28.7 °F 21.2 °F 64% 30.32 in 10.0 mi NW 3.5 mph - N/A   Clear
8:35 AM 33.8 °F 29.6 °F 23.0 °F 65% 30.33 in 10.0 mi NW 4.6 mph - N/A   Clear
8:55 AM 35.6 °F 28.6 °F 21.2 °F 56% 30.33 in 10.0 mi NNW 9.2 mph - N/A   Clear
9:15 AM 37.4 °F 30.3 °F 21.2 °F 52% 30.34 in 10.0 mi NNW 10.4 mph - N/A   Clear
9:35 AM 37.4 °F 30.3 °F 23.0 °F 56% 30.34 in 10.0 mi NNW 10.4 mph - N/A   Clear
9:55 AM 41.0 °F 33.9 °F 23.0 °F 49% 30.34 in 10.0 mi North 12.7 mph 19.6 mph N/A   Clear
10:15 AM 41.0 °F 35.2 °F 23.0 °F 49% 30.35 in 10.0 mi North 9.2 mph 18.4 mph N/A   Clear
10:35 AM 42.8 °F 35.8 °F 23.0 °F 46% 30.35 in 10.0 mi North 13.8 mph 19.6 mph N/A   Clear
10:55 AM 42.8 °F 36.6 °F 21.2 °F 42% 30.35 in 10.0 mi NNW 11.5 mph 18.4 mph N/A   Clear
11:15 AM 42.8 °F 36.6 °F 21.2 °F 42% 30.35 in 10.0 mi North 11.5 mph 18.4 mph N/A   Clear
11:35 AM 46.4 °F 40.7 °F 21.2 °F 37% 30.35 in 10.0 mi NNW 12.7 mph 19.6 mph N/A   Clear
11:55 AM 46.4 °F 42.4 °F 21.2 °F 37% 30.35 in 10.0 mi NNW 8.1 mph 20.7 mph N/A   Clear
12:15 PM 48.2 °F - 21.2 °F 34% 30.34 in 10.0 mi North 18.4 mph 23.0 mph N/A   Clear
12:35 PM 48.2 °F - 21.2 °F 34% 30.34 in 10.0 mi NNW 15.0 mph 23.0 mph N/A   Clear
12:55 PM 50.0 °F - 21.2 °F 32% 30.34 in 10.0 mi NNW 11.5 mph 19.6 mph N/A   Clear
1:15 PM 50.0 °F - 21.2 °F 32% 30.33 in 10.0 mi NNW 10.4 mph 19.6 mph N/A   Clear
1:35 PM 50.0 °F - 19.4 °F 30% 30.32 in 10.0 mi North 15.0 mph 21.9 mph N/A   Clear
1:55 PM 51.8 °F - 21.2 °F 30% 30.31 in 10.0 mi NNW 11.5 mph 18.4 mph N/A   Clear
2:15 PM 50.0 °F - 21.2 °F 32% 30.31 in 10.0 mi North 9.2 mph 18.4 mph N/A   Clear
2:35 PM 51.8 °F - 19.4 °F 28% 30.29 in 10.0 mi North 16.1 mph 21.9 mph N/A   Clear
2:55 PM 51.8 °F - 19.4 °F 28% 30.29 in 10.0 mi North 10.4 mph 20.7 mph N/A   Clear
3:15 PM 51.8 °F - 19.4 °F 28% 30.28 in 10.0 mi NW 9.2 mph 21.9 mph N/A   Clear
3:35 PM 51.8 °F - 19.4 °F 28% 30.28 in 10.0 mi North 10.4 mph 24.2 mph N/A   Clear
3:55 PM 53.6 °F - 19.4 °F 26% 30.27 in 10.0 mi North 17.3 mph 21.9 mph N/A   Clear
4:15 PM 53.6 °F - 19.4 °F 26% 30.27 in 10.0 mi NNW 6.9 mph 16.1 mph N/A   Clear
4:35 PM 53.6 °F - 17.6 °F 24% 30.27 in 10.0 mi North 12.7 mph 19.6 mph N/A   Clear
4:55 PM 51.8 °F - 17.6 °F 26% 30.26 in 10.0 mi North 15.0 mph 23.0 mph N/A   Clear
5:15 PM 51.8 °F - 17.6 °F 26% 30.26 in 10.0 mi North 11.5 mph 21.9 mph N/A   Clear
5:35 PM 51.8 °F - 17.6 °F 26% 30.26 in 10.0 mi NNW 13.8 mph 21.9 mph N/A   Clear
5:55 PM 51.8 °F - 15.8 °F 24% 30.26 in 10.0 mi NNW 12.7 mph 18.4 mph N/A   Clear
6:15 PM 51.8 °F - 15.8 °F 24% 30.27 in 10.0 mi NNW 13.8 mph 20.7 mph N/A   Clear
6:35 PM 51.8 °F - 14.0 °F 22% 30.27 in 10.0 mi North 12.7 mph 23.0 mph N/A   Clear
6:55 PM 50.0 °F - 14.0 °F 24% 30.28 in 10.0 mi NNW 6.9 mph - N/A   Clear
7:15 PM 50.0 °F - 15.8 °F 26% 30.28 in 10.0 mi North 9.2 mph - N/A   Clear
7:35 PM 50.0 °F - 14.0 °F 24% 30.29 in 10.0 mi NNW 6.9 mph 16.1 mph N/A   Clear
7:55 PM 48.2 °F - 15.8 °F 27% 30.30 in 10.0 mi NNW 8.1 mph - N/A   Clear
8:15 PM 46.4 °F 43.5 °F 17.6 °F 32% 30.31 in 10.0 mi NNW 5.8 mph - N/A   Clear
8:35 PM 44.6 °F 42.2 °F 19.4 °F 37% 30.32 in 10.0 mi NNW 4.6 mph - N/A   Clear
8:55 PM 44.6 °F 41.4 °F 19.4 °F 37% 30.32 in 10.0 mi NNW 5.8 mph - N/A   Clear
9:15 PM 44.6 °F 41.4 °F 17.6 °F 34% 30.33 in 10.0 mi NNW 5.8 mph - N/A   Clear
9:35 PM 44.6 °F 40.2 °F 15.8 °F 31% 30.34 in 10.0 mi NNW 8.1 mph - N/A   Clear
9:55 PM 44.6 °F 40.2 °F 15.8 °F 31% 30.36 in 10.0 mi NNW 8.1 mph - N/A   Clear
10:15 PM 44.6 °F 39.7 °F 14.0 °F 29% 30.37 in 10.0 mi North 9.2 mph - N/A   Clear
10:35 PM 44.6 °F 40.2 °F 14.0 °F 29% 30.37 in 10.0 mi North 8.1 mph - N/A   Clear
10:55 PM 42.8 °F 40.1 °F 14.0 °F 31% 30.39 in 10.0 mi NNW 4.6 mph - N/A   Clear
11:15 PM 42.8 °F 40.1 °F 15.8 °F 34% 30.39 in 10.0 mi North 4.6 mph - N/A   Clear
11:35 PM 42.8 °F 39.3 °F 17.6 °F 36% 30.40 in 10.0 mi North 5.8 mph - N/A   Clear
11:55 PM 41.0 °F 37.1 °F 17.6 °F 39% 30.40 in 10.0 mi North 5.8 mph - N/A   Clear